FW4624 Weather Reports


time (UTC)temp
C
wind
direction
speed
KPH
gust
KPH
rain 1hr
cm
rain 24hr
cm
rain mn
cm
humidity
%
barometer
mb
20260508164012 17 190 3.2 6.4 0.00 0.03 0.03 50 1017.7
20260508163513 17 229 0.0 4.8 0.00 0.03 0.03 52 1017.6
20260508163014 17 229 1.6 4.8 0.00 0.03 0.03 52 1017.6
20260508162510 17 229 1.6 4.8 0.00 0.03 0.03 53 1017.7
20260508162011 17 229 1.6 4.8 0.00 0.03 0.03 54 1017.6
20260508161510 17 229 3.2 4.8 0.00 0.03 0.03 51 1017.7
20260508161010 17 229 0.0 4.8 0.00 0.03 0.03 51 1017.7
20260508160510 17 229 1.6 4.8 0.00 0.03 0.03 52 1017.7
20260508160009 17 229 0.0 8.0 0.00 0.03 0.03 52 1017.7
20260508155509 17 229 3.2 8.0 0.00 0.03 0.03 48 1017.8
20260508155010 17 229 3.2 6.4 0.00 0.03 0.03 52 1017.8
20260508154510 18 229 3.2 6.4 0.00 0.03 0.03 51 1017.7
20260508154008 18 230 1.6 4.8 0.00 0.03 0.03 55 1017.8
20260508153510 17 230 1.6 4.8 0.00 0.03 0.03 51 1017.8
20260508153008 17 230 0.0 3.2 0.00 0.03 0.03 49 1017.8
20260508152510 17 230 1.6 6.4 0.00 0.03 0.03 50 1017.9
20260508152007 17 230 3.2 8.0 0.00 0.03 0.03 55 1018.0
20260508151507 17 229 4.8 8.0 0.00 0.03 0.03 55 1018.1
20260508151011 17 225 3.2 8.0 0.00 0.03 0.03 53 1018.0
20260508150506 17 224 3.2 8.0 0.00 0.03 0.03 55 1018.0
20260508150006 17 194 4.8 6.4 0.00 0.03 0.03 54 1018.2
20260508145505 17 156 3.2 8.0 0.00 0.03 0.03 51 1018.1
20260508145004 17 155 3.2 8.0 0.00 0.03 0.03 54 1018.1
20260508144505 17 150 1.6 4.8 0.00 0.03 0.03 50 1018.2
20260508144004 17 150 1.6 4.8 0.00 0.03 0.03 53 1018.2
20260508143504 17 150 1.6 4.8 0.00 0.03 0.03 53 1018.3
20260508143004 18 150 3.2 8.0 0.00 0.03 0.03 52 1018.3
20260508142502 17 133 1.6 9.7 0.00 0.03 0.03 48 1018.4
20260508142003 17 122 0.0 9.7 0.00 0.03 0.03 48 1018.4
20260508141503 18 123 3.2 8.0 0.00 0.03 0.03 50 1018.4
20260508141003 18 248 1.6 6.4 0.00 0.03 0.03 48 1018.6
20260508140503 17 250 1.6 4.8 0.00 0.03 0.03 51 1018.6
20260508140002 17 250 1.6 9.7 0.00 0.03 0.03 50 1018.5
20260508135502 16 250 3.2 9.7 0.00 0.03 0.03 51 1018.5
20260508135002 17 287 3.2 6.4 0.00 0.03 0.03 49 1018.6
20260508134501 17 341 0.0 3.2 0.00 0.03 0.03 51 1018.5
20260508134001 17 341 0.0 4.8 0.00 0.03 0.03 51 1018.6
20260508133503 17 341 1.6 9.7 0.00 0.03 0.03 53 1018.6
20260508133002 17 341 4.8 9.7 0.00 0.03 0.03 51 1018.6
20260508132503 16 355 0.0 8.0 0.00 0.03 0.03 53 1018.5
20260508132100 16 5 1.6 9.7 0.00 0.03 0.03 53 1018.7
20260508131601 16 355 3.2 9.7 0.00 0.03 0.03 52 1018.6
20260508131101 17 346 3.2 8.0 0.00 0.03 0.03 50 1018.7
20260508130600 17 337 1.6 8.0 0.00 0.03 0.03 50 1018.7
20260508130100 17 330 1.6 8.0 0.00 0.03 0.03 50 1018.7
20260508125600 17 321 1.6 6.4 0.00 0.03 0.03 48 1018.8
20260508125059 18 34 1.6 8.0 0.00 0.03 0.03 51 1018.8
20260508124603 17 34 3.2 8.0 0.00 0.03 0.03 46 1018.8
20260508124058 17 340 1.6 9.7 0.00 0.03 0.03 49 1018.8
20260508123558 18 355 0.0 8.0 0.00 0.03 0.03 48 1018.7
20260508123058 17 355 1.6 8.0 0.00 0.03 0.03 52 1018.8
20260508122557 16 360 1.6 6.4 0.00 0.03 0.03 51 1018.7
20260508122059 16 360 1.6 8.0 0.00 0.03 0.03 50 1018.9
20260508121601 17 68 0.0 8.0 0.00 0.03 0.03 55 1018.9
20260508121056 17 315 3.2 9.7 0.00 0.03 0.03 60 1018.9
20260508120557 17 167 4.8 9.7 0.00 0.03 0.03 55 1018.8
20260508120056 17 98 3.2 9.7 0.00 0.03 0.03 55 1018.8
20260508115556 17 348 0.0 4.8 0.00 0.03 0.03 58 1018.9
20260508115054 16 348 1.6 6.4 0.00 0.03 0.03 55 1018.8
20260508114554 17 348 1.6 12.9 0.00 0.03 0.03 55 1018.8
20260508114054 16 351 3.2 12.9 0.00 0.03 0.03 55 1018.9
20260508113553 16 163 1.6 8.0 0.00 0.03 0.03 58 1018.9
20260508113105 15 164 1.6 8.0 0.00 0.03 0.03 59 1018.9
20260508112552 16 164 4.8 8.0 0.00 0.03 0.03 56 1019.0
20260508112052 16 166 3.2 8.0 0.00 0.03 0.03 61 1018.9
20260508111557 16 184 3.2 8.0 0.00 0.03 0.03 66 1019.0
20260508111053 16 219 3.2 9.7 0.00 0.03 0.03 64 1019.1
20260508110552 16 267 1.6 12.9 0.00 0.03 0.03 63 1019.0
20260508110057 16 340 3.2 12.9 0.00 0.03 0.03 61 1019.1
20260508105551 15 81 3.2 9.7 0.00 0.03 0.03 62 1019.2
20260508105053 15 86 3.2 8.0 0.00 0.03 0.03 62 1019.2
20260508104552 15 57 0.0 6.4 0.00 0.03 0.03 62 1019.3
20260508104049 16 96 1.6 6.4 0.00 0.03 0.03 66 1019.3
20260508103550 15 94 1.6 6.4 0.00 0.03 0.03 67 1019.6
20260508103046 15 355 1.6 8.0 0.00 0.03 0.03 66 1019.3
20260508102547 15 341 3.2 9.7 0.00 0.03 0.03 64 1019.4
20260508102047 14 98 1.6 9.7 0.00 0.03 0.03 67 1019.4
20260508101548 15 98 1.6 9.7 0.00 0.03 0.03 66 1019.5
20260508101046 15 87 3.2 9.7 0.00 0.03 0.03 66 1019.5
20260508100545 15 196 1.6 6.4 0.00 0.03 0.03 70 1019.5
20260508100045 14 320 0.0 6.4 0.00 0.03 0.03 69 1019.5
20260508095545 14 320 0.0 6.4 0.00 0.03 0.03 68 1019.5
20260508095044 13 320 1.6 8.0 0.00 0.03 0.03 69 1019.5
20260508094544 14 319 4.8 8.0 0.00 0.03 0.03 68 1019.7
20260508094044 14 185 1.6 9.7 0.00 0.03 0.03 72 1019.6
20260508093543 13 188 1.6 9.7 0.00 0.03 0.03 71 1019.7
20260508093047 13 340 0.0 8.0 0.00 0.03 0.03 70 1019.8
20260508092543 13 340 0.0 8.0 0.00 0.03 0.03 73 1019.8
20260508092039 13 334 3.2 12.9 0.00 0.03 0.03 72 1019.8
20260508091549 12 348 4.8 12.9 0.00 0.03 0.03 72 1019.8
20260508091040 12 144 0.0 4.8 0.00 0.03 0.03 72 1019.8
20260508090538 12 144 0.0 4.8 0.00 0.03 0.03 76 1019.9
20260508090041 12 144 0.0 4.8 0.00 0.03 0.03 75 1019.9
20260508085537 12 144 1.6 4.8 0.00 0.03 0.03 74 1019.8
20260508085036 12 146 0.0 4.8 0.00 0.03 0.03 77 1019.9
20260508084536 12 146 0.0 6.4 0.00 0.03 0.03 77 1019.9
20260508084037 12 145 1.6 6.4 0.00 0.03 0.03 75 1019.9
20260508083534 12 146 0.0 4.8 0.00 0.03 0.03 80 1019.9
20260508083037 11 146 1.6 6.4 0.00 0.03 0.03 77 1020.0
20260508082536 12 145 3.2 6.4 0.00 0.03 0.03 77 1019.9
20260508082034 12 55 1.6 4.8 0.00 0.03 0.03 76 1020.1
20260508081534 11 53 0.0 6.4 0.00 0.03 0.03 76 1020.1
20260508081033 11 53 3.2 6.4 0.00 0.03 0.03 77 1020.0
20260508080533 11 55 1.6 6.4 0.00 0.03 0.03 78 1020.0
20260508080035 11 56 0.0 4.8 0.00 0.03 0.03 79 1020.0
20260508075533 11 5 1.6 4.8 0.00 0.03 0.03 80 1020.0
20260508075033 11 5 0.0 4.8 0.00 0.03 0.03 80 1020.1
20260508074544 11 5 1.6 4.8 0.00 0.03 0.03 82 1020.1
20260508074031 11 5 0.0 3.2 0.00 0.03 0.03 82 1020.0
20260508073534 11 5 0.0 4.8 0.00 0.03 0.03 82 1020.1
20260508073032 11 5 0.0 4.8 0.00 0.03 0.03 85 1020.1
20260508072527 10 5 0.0 3.2 0.00 0.03 0.03 85 1019.9
20260508072027 10 5 1.6 3.2 0.00 0.03 0.03 84 1020.0
20260508071531 10 5 0.0 3.2 0.00 0.03 0.03 87 1019.9
20260508071028 10 5 0.0 3.2 0.00 0.03 0.03 88 1019.8
20260508070524 9 5 0.0 3.2 0.00 0.03 0.03 89 1019.8
20260508070024 8 5 0.0 1.6 0.00 0.03 0.03 89 1019.7
20260508065523 8 5 0.0 1.6 0.00 0.03 0.03 90 1019.8
20260508065023 8 5 0.0 1.6 0.00 0.03 0.03 90 1019.8
20260508064523 8 5 0.0 3.2 0.00 0.03 0.03 90 1019.7
20260508064024 8 5 0.0 3.2 0.00 0.03 0.03 91 1019.7
20260508063522 8 5 0.0 3.2 0.00 0.03 0.03 91 1019.7
20260508063021 7 5 0.0 4.8 0.00 0.03 0.03 92 1019.6
20260508062521 7 5 1.6 4.8 0.00 0.03 0.03 92 1019.5
20260508062022 7 5 0.0 4.8 0.00 0.03 0.03 92 1019.5
20260508061522 7 5 1.6 4.8 0.00 0.03 0.03 92 1019.6
20260508061020 7 5 0.0 3.2 0.00 0.03 0.03 92 1019.4
20260508060520 7 5 1.6 4.8 0.00 0.03 0.03 92 1019.3
20260508060019 7 5 1.6 4.8 0.00 0.03 0.03 92 1019.4
20260508055521 7 5 1.6 4.8 0.00 0.03 0.03 92 1019.3
20260508055019 6 5 1.6 4.8 0.00 0.03 0.03 92 1019.3
20260508054519 7 5 0.0 6.4 0.00 0.03 0.03 93 1019.3
20260508054018 6 5 3.2 6.4 0.00 0.03 0.03 93 1019.3
20260508053517 6 5 0.0 4.8 0.00 0.03 0.03 93 1019.3
20260508053017 6 5 0.0 3.2 0.00 0.03 0.03 93 1019.2
20260508052516 6 5 0.0 3.2 0.00 0.03 0.03 93 1019.1
20260508052016 6 5 0.0 4.8 0.00 0.03 0.03 93 1019.1
20260508051516 6 5 0.0 4.8 0.00 0.03 0.03 93 1019.1
20260508051015 6 5 0.0 3.2 0.00 0.03 0.03 93 1019.0
20260508050515 6 5 0.0 4.8 0.00 0.03 0.03 93 1019.0
20260508050014 6 5 0.0 4.8 0.00 0.03 0.03 93 1019.0
20260508045521 6 13 1.6 3.2 0.00 0.03 0.03 93 1019.0
20260508045013 6 360 0.0 0.0 0.00 0.03 0.03 93 1018.8
20260508044513 6 360 0.0 0.0 0.00 0.03 0.03 93 1018.9
20260508044012 6 360 0.0 0.0 0.00 0.03 0.03 93 1018.9
20260508043523 6 360 0.0 0.0 0.00 0.03 0.03 93 1018.7
20260508043012 6 360 0.0 0.0 0.03 0.03 0.03 93 1018.8
20260508042515 6 360 0.0 0.0 0.03 0.03 0.03 93 1018.8
20260508042012 6 360 0.0 0.0 0.03 0.03 0.03 93 1018.8
20260508041511 6 360 0.0 0.0 0.03 0.03 0.03 93 1018.8
20260508041011 5 360 0.0 0.0 0.03 0.03 0.03 93 1018.8
20260508040516 5 360 0.0 0.0 0.03 0.03 0.03 93 1018.8
20260508040012 5 360 0.0 0.0 0.03 0.03 0.03 94 1018.7
20260508035510 5 360 0.0 0.0 0.03 0.03 0.03 93 1018.8
20260508035012 5 360 0.0 0.0 0.03 0.03 0.03 93 1018.8
20260508034510 5 360 0.0 0.0 0.03 0.03 0.03 93 1018.7
20260508034010 5 360 0.0 0.0 0.03 0.03 0.03 93 1018.7
20260508033514 5 360 0.0 0.0 0.03 0.03 0.03 93 1018.6
20260508033010 5 360 0.0 0.0 0.00 0.00 0.00 93 1018.6
20260508032509 5 360 0.0 0.0 0.00 0.00 0.00 93 1018.6
20260508032012 5 360 0.0 0.0 0.00 0.00 0.00 93 1018.6
20260508031508 4 360 0.0 0.0 0.00 0.00 0.00 93 1018.5
20260508031008 4 360 0.0 0.0 0.00 0.00 0.00 93 1018.5
20260508030508 5 360 0.0 0.0 0.00 0.00 0.00 93 1018.5
20260508030008 5 360 0.0 0.0 0.00 0.00 0.00 93 1018.5
20260508025607 5 360 0.0 0.0 0.00 0.00 0.00 93 1018.5
20260508025008 5 360 0.0 0.0 0.00 0.00 0.00 93 1018.4
20260508024507 5 360 0.0 0.0 0.00 0.00 0.00 93 1018.4
20260508024004 5 360 0.0 0.0 0.00 0.00 0.00 93 1018.5
20260508023504 5 360 0.0 0.0 0.00 0.00 0.00 93 1018.5
20260508023003 5 360 0.0 0.0 0.00 0.00 0.00 93 1018.6
20260508022503 5 360 0.0 0.0 0.00 0.00 0.00 93 1018.6
20260508022003 5 360 0.0 0.0 0.00 0.00 0.00 93 1018.6
20260508021502 5 360 0.0 0.0 0.00 0.00 0.00 93 1018.5
20260508021002 5 360 0.0 0.0 0.00 0.00 0.00 93 1018.6
20260508020502 5 360 0.0 0.0 0.00 0.00 0.00 92 1018.5
20260508020002 5 360 0.0 0.0 0.00 0.00 0.00 93 1018.6
20260508015502 5 360 0.0 0.0 0.00 0.00 0.00 92 1018.6
20260508015002 5 360 0.0 0.0 0.00 0.00 0.00 93 1018.5
20260508014601 5 360 0.0 0.0 0.00 0.00 0.00 92 1018.6
20260508014102 6 360 0.0 0.0 0.00 0.00 0.00 92 1018.6
20260508013600 6 360 0.0 0.0 0.00 0.00 0.00 92 1018.4
20260508013058 6 360 0.0 0.0 0.00 0.00 0.00 92 1018.6
20260508012557 6 360 0.0 0.0 0.00 0.00 0.00 92 1018.6
20260508012057 6 360 0.0 1.6 0.00 0.00 0.00 92 1018.6
20260508011557 6 360 0.0 1.6 0.00 0.00 0.00 92 1018.6
20260508011056 6 360 0.0 1.6 0.00 0.00 0.00 92 1018.6
20260508010557 6 360 0.0 0.0 0.00 0.00 0.00 92 1018.6
20260508010056 6 360 0.0 0.0 0.00 0.00 0.00 92 1018.6
20260508005556 6 360 0.0 1.6 0.00 0.00 0.00 92 1018.5
20260508005057 6 360 0.0 3.2 0.00 0.00 0.00 92 1018.5
20260508004609 6 360 1.6 3.2 0.00 0.00 0.00 92 1018.5
20260508004053 6 360 0.0 3.2 0.00 0.00 0.00 92 1018.6
20260508003552 6 360 1.6 3.2 0.00 0.00 0.00 92 1018.6
20260508003052 6 360 0.0 3.2 0.00 0.00 0.00 91 1018.6
20260508002550 6 360 0.0 1.6 0.00 0.00 0.00 91 1018.5
20260508002049 7 360 0.0 1.6 0.00 0.00 0.00 91 1018.6
20260508001548 7 360 0.0 3.2 0.00 0.00 0.00 91 1018.6
20260508001048 7 360 1.6 4.8 0.00 0.00 0.00 91 1018.6
20260508000548 7 360 1.6 4.8 0.00 0.00 0.00 91 1018.6
20260508000048 7 360 1.6 6.4 0.00 0.00 0.00 90 1018.6
20260507235545 7 11 3.2 4.8 0.00 0.00 0.00 90 1018.6
20260507235045 7 11 1.6 4.8 0.00 0.00 0.00 90 1018.7
20260507234544 7 10 0.0 4.8 0.00 0.00 0.00 90 1018.7
20260507234042 8 10 1.6 4.8 0.00 0.00 0.00 90 1018.6
20260507233545 8 10 0.0 4.8 0.00 0.00 0.00 89 1018.6
20260507233041 8 10 1.6 4.8 0.00 0.00 0.00 89 1018.6
20260507232539 8 10 1.6 4.8 0.00 0.00 0.00 89 1018.6
20260507232038 8 10 1.6 4.8 0.00 0.00 0.00 88 1018.6
20260507231543 8 12 0.0 4.8 0.00 0.00 0.00 88 1018.6
20260507231037 8 13 1.6 4.8 0.00 0.00 0.00 88 1018.7
20260507230537 8 13 1.6 4.8 0.00 0.00 0.00 88 1018.7
20260507230036 8 360 0.0 6.4 0.00 0.00 0.00 87 1018.7
20260507225535 9 360 1.6 6.4 0.00 0.00 0.00 87 1018.7
20260507225035 9 360 3.2 6.4 0.00 0.00 0.00 87 1018.6
20260507224536 9 9 1.6 4.8 0.00 0.00 0.00 87 1018.7
20260507224038 9 10 1.6 6.4 0.00 0.00 0.00 87 1018.7
20260507223534 9 11 3.2 6.4 0.00 0.00 0.00 87 1018.8
20260507223033 9 5 1.6 6.4 0.00 0.00 0.00 88 1018.7
20260507222533 9 5 3.2 6.4 0.00 0.00 0.00 88 1018.7
20260507222034 9 9 3.2 6.4 0.00 0.00 0.00 87 1018.7
20260507221533 9 5 3.2 6.4 0.00 0.00 0.00 87 1018.6
20260507221030 9 5 1.6 6.4 0.00 0.00 0.00 87 1018.6
20260507220530 10 5 3.2 6.4 0.00 0.00 0.00 87 1018.5
20260507220029 10 5 1.6 4.8 0.00 0.00 0.00 87 1018.5
20260507215529 10 5 1.6 4.8 0.00 0.00 0.00 87 1018.5
20260507215027 10 5 1.6 4.8 0.00 0.00 0.00 87 1018.4
20260507214530 10 5 1.6 4.8 0.00 0.00 0.00 87 1018.3
20260507214027 10 5 1.6 4.8 0.00 0.00 0.00 87 1018.3
20260507213529 10 5 1.6 6.4 0.00 0.00 0.00 87 1018.4
20260507213027 10 5 3.2 6.4 0.00 0.00 0.00 87 1018.2
20260507212526 10 9 3.2 4.8 0.00 0.00 0.00 87 1018.2
20260507212026 10 360 1.6 4.8 0.00 0.00 0.00 86 1018.1
20260507211526 10 360 1.6 6.4 0.00 0.00 0.00 86 1018.1
20260507211026 10 360 1.6 6.4 0.00 0.00 0.00 86 1018.1
20260507210525 10 5 1.6 8.0 0.00 0.00 0.00 86 1018.1
20260507210038 10 5 1.6 8.0 0.00 0.00 0.00 86 1018.1
20260507205525 10 5 1.6 6.4 0.00 0.00 0.00 86 1018.1
20260507205024 10 5 1.6 6.4 0.00 0.00 0.00 86 1018.1
20260507204525 10 5 1.6 6.4 0.00 0.00 0.00 86 1018.0
20260507204027 10 5 1.6 6.4 0.00 0.00 0.00 86 1018.1
20260507203524 10 360 3.2 8.0 0.00 0.00 0.00 86 1018.0
20260507203022 10 345 3.2 8.0 0.00 0.00 0.00 86 1017.9
20260507202523 10 5 3.2 6.4 0.00 0.00 0.00 86 1017.9
20260507202023 10 5 3.2 6.4 0.00 0.00 0.00 86 1017.9
20260507201523 10 10 1.6 6.4 0.00 0.00 0.00 86 1017.8
20260507201022 10 10 1.6 6.4 0.00 0.00 0.00 86 1017.8
20260507200522 10 19 3.2 6.4 0.00 0.00 0.00 86 1017.8
20260507200021 11 19 1.6 8.0 0.00 0.00 0.00 86 1017.8
20260507195521 11 20 3.2 8.0 0.00 0.00 0.00 86 1017.8
20260507195021 11 355 1.6 4.8 0.00 0.00 0.00 85 1017.8
20260507194521 11 355 1.6 8.0 0.00 0.00 0.00 85 1017.7
20260507194021 11 12 1.6 8.0 0.00 0.00 0.00 85 1017.7
20260507193519 11 13 3.2 8.0 0.00 0.00 0.00 85 1017.6
20260507193019 11 28 1.6 4.8 0.00 0.00 0.00 85 1017.5
20260507192519 11 28 1.6 6.4 0.00 0.00 0.00 84 1017.4
20260507192021 11 28 1.6 8.0 0.00 0.00 0.00 84 1017.3
20260507191519 11 18 3.2 8.0 0.00 0.00 0.00 84 1017.3
20260507191017 11 49 1.6 6.4 0.00 0.00 0.00 84 1017.2
20260507190518 11 49 0.0 6.4 0.00 0.00 0.00 84 1017.2
20260507190017 11 49 1.6 8.0 0.00 0.00 0.00 83 1017.1
20260507185516 11 53 3.2 8.0 0.00 0.03 0.00 83 1017.1
20260507185020 11 52 1.6 6.4 0.00 0.03 0.00 84 1017.1
20260507184518 11 51 0.0 6.4 0.00 0.03 0.00 84 1016.9
20260507184016 12 51 1.6 4.8 0.00 0.03 0.00 83 1016.9
20260507183514 12 51 1.6 4.8 0.00 0.03 0.00 83 1016.9
20260507183014 12 51 0.0 6.4 0.00 0.03 0.00 82 1016.9
20260507182514 12 51 1.6 6.4 0.00 0.03 0.00 82 1016.8
20260507182014 12 49 1.6 6.4 0.00 0.03 0.00 80 1016.8
20260507181513 12 84 1.6 6.4 0.00 0.03 0.00 80 1016.7
20260507181015 12 88 0.0 4.8 0.00 0.03 0.00 79 1016.7
20260507180514 12 88 0.0 4.8 0.00 0.03 0.00 79 1016.7
20260507180013 12 88 0.0 4.8 0.00 0.03 0.00 80 1016.7
20260507175513 12 88 0.0 4.8 0.00 0.05 0.00 80 1016.8
20260507175014 12 88 1.6 4.8 0.00 0.05 0.00 79 1016.7
20260507174513 12 88 0.0 4.8 0.00 0.05 0.00 80 1016.6
20260507174013 12 88 0.0 3.2 0.00 0.05 0.00 80 1016.6
20260507173514 12 88 0.0 4.8 0.00 0.05 0.00 80 1016.6
20260507173011 12 88 0.0 4.8 0.00 0.05 0.00 79 1016.6
20260507172510 12 88 0.0 1.6 0.00 0.05 0.00 81 1016.5
20260507172010 12 88 0.0 1.6 0.00 0.05 0.00 81 1016.5
20260507171510 12 88 0.0 3.2 0.00 0.05 0.00 83 1016.4
20260507171010 12 88 0.0 4.8 0.00 0.05 0.00 83 1016.5
20260507170510 12 88 1.6 4.8 0.00 0.05 0.00 84 1016.5
20260507170012 12 88 1.6 4.8 0.00 0.05 0.00 84 1016.4
20260507165509 12 86 1.6 4.8 0.00 0.05 0.00 83 1016.3
20260507165009 12 85 1.6 3.2 0.00 0.05 0.00 83 1016.3
20260507164509 12 85 1.6 3.2 0.00 0.05 0.00 83 1016.4